Regional Weather Roundup
Issued by NWS

Home | Current Version | Previous Version | Graphics & Text | Print | Product List | Glossary On
Versions: 1 2 3 4 5 6 7 8 9 10 11 12 13 14 15 16 17 18 19 20 21 22 23 24 25 26 27 28 29 30 31 32 33 34 35 36 37 38 39 40 41 42 43 44 45 46 47 48 49 50
278
ASUS43 KLOT 260709
RWRIL

ILLINOIS REGIONAL WEATHER ROUNDUP
NATIONAL WEATHER SERVICE CHICAGO/ROMEOVILLE IL
200 AM CDT TUE SEP 26 2017

NOTE: "FAIR" INDICATES FEW OR NO CLOUDS BELOW 12,000 FEET WITH NO
SIGNIFICANT WEATHER AND/OR OBSTRUCTIONS TO VISIBILITY.

* THESE STATIONS ARE NOT UNDER NWS QUALITY CONTROL. THEY ALSO MAY NOT
  REPORT WEATHER SUCH AS PRECIPITATION OR FOG.

ILZ001-002-007-009-015-016-024-260800-
NORTHWEST ILLINOIS

CITY           SKY/WX    TMP DP  RH WIND       PRES   REMARKS
MOLINE         CLOUDY    72  65  78 W7        29.93R
STERLING*      CLEAR     64  61  90 CALM      29.93S
SAVANNA*       RAIN      69  64  85 CALM      29.95R
$$

ILZ003-004-008-010-011-017-018-260800-
NORTH CENTRAL ILLINOIS

CITY           SKY/WX    TMP DP  RH WIND       PRES   REMARKS
ROCKFORD       CLEAR     70  59  68 CALM      29.94S
FREEPORT*      CLEAR     65  62  91 NE3       29.96S
ROCHELLE*      CLEAR     67  59  75 S6        29.94S
DE KALB*       CLEAR     67  60  78 S7        29.96S
PERU*          CLEAR     70  59  68 S6        29.94S
$$

ILZ005-006-012>014-019>023-260800-
NORTHEAST ILLINOIS

CITY           SKY/WX    TMP DP  RH WIND       PRES   REMARKS
CHICAGO-OHARE  PTCLDY    73  57  57 S5        29.93S
CHICAGO-MIDWAY PTCLDY    77  57  50 S5        29.94S
AURORA         CLEAR     67  61  81 CALM      29.95R
LANSING*       CLEAR     68  60  76 CALM      29.95S
JOLIET*        CLEAR     66  62  86 CALM      29.94S
WAUKEGAN       MOCLDY    66  61  84 SW3       29.93S
DUPAGE AIRPORT CLEAR     70  60  70 S5        29.94S
KANKAKEE*      CLEAR     68  60  76 CALM      29.96S
WHEELING       CLEAR     71  63  75 CALM      29.94F
MORRIS*        CLEAR     69  59  71 S3        29.93S
ROMEOVILLE*    CLEAR     69  59  71 S7        29.95S
NORTHERLY ISL    N/A     77  54  44 S3          N/A
$$

LMZ740>746-260800-
SOUTHERN LAKE MICHIGAN

STATION/POSITION SKY/WX   TEMP    WIND        PRES    VSBY  WAVE
                          AIR SEA DIR/SP/G                  HT/PER
                          (F)     (DEG/KT/KT) (MB)    (MI)  (FT/S)
SOUTHERN BUOY              74 71  130/  8/  8 1013.7          0
WILMETTE HARBOR            73 71  160/  6/  8   N/A           0
HARRISON CRIB              78     190/ 11/ 11   N/A
BURNHAM HARBOR             77                   N/A
CALUMET HARBOR             76     180/  4/  7 1013.4R
BURNS HARBOR               76     170/  7/ 10 1014.6S
MICHIGAN CITY              73     140/  8/  8   N/A
MICHIGAN CITY 6N           73 71  160/  6/  6   N/A           0
ST. JOSEPH                 74 71  180/  6/  8 1014.0          1
$$

ILZ025>027-034>036-040-047-049-050-058-095>099-260800-
WEST-CENTRAL ILLINOIS

CITY           SKY/WX    TMP DP  RH WIND       PRES   REMARKS
QUINCY         PTCLDY    70  64  81 S5        29.93S
GALESBURG*     CLOUDY    71  64  81 W5        29.95R
MACOMB*        PTCLDY    71  64  79 S3        29.95R
JACKSONVILLE*  CLEAR     74  62  65 S7        29.94S
PITTSFIELD*    CLEAR     71  64  80 S3        29.95S
$$

ILZ028>032-037-038-041>044-048-051>054-059>061-260800-
CENTRAL ILLINOIS

CITY           SKY/WX    TMP DP  RH WIND       PRES   REMARKS
PONTIAC        CLEAR     65  64  94 SE5       29.96R
BLOOMINGTON    CLEAR     69  61  75 S7        29.97S
DECATUR        CLEAR     70  61  73 S3        29.97R
PEORIA         CLEAR     72  63  73 CALM      29.94S
LACON*         CLEAR     71  62  72 S3        29.93S
LINCOLN*       CLEAR     67  63  86 CALM      29.95S
SPRINGFIELD    CLEAR     76  63  64 SW7       29.95S
TAYLORVILLE    CLEAR     67  62  83 S5        29.97R
$$

ILZ033-039-045-046-055>057-062-063-260800-
EAST-CENTRAL ILLINOIS

CITY           SKY/WX    TMP DP  RH WIND       PRES   REMARKS
CHAMPAIGN      CLEAR     67  59  75 S6        29.97S
RANTOUL*       CLEAR     69  63  81 CALM      29.97S
MATTOON        CLEAR     74  64  71 S3        29.97R
PARIS*         CLEAR     67  63  89 SW5       29.98S
$$

ILZ079-100>102-260800-
SOUTHWEST ILLINOIS

CITY           SKY/WX    TMP DP  RH WIND       PRES   REMARKS
ALTON          CLEAR     68  64  84 E5        29.96S
BELLEVILLE     CLEAR     66  63  91 CALM      29.95R
CAHOKIA*       CLEAR     68  62  81 CALM      29.95S
SPARTA*        CLEAR     74  62  66 S5        29.97S
$$

ILZ064>066-069>071-074>076-080>082-084>086-088>090-092>094-260800-
SOUTH-CENTRAL ILLINOIS

CITY           SKY/WX    TMP DP  RH WIND       PRES   REMARKS
CARBONDALE     CLEAR     65  65 100 CALM      29.96S
CAIRO*           N/A     63  63  99 CALM      29.96S FOG
EFFINGHAM*     CLEAR     66  63  88 CALM      29.98S
MARION         CLEAR     68  68 100 CALM      29.97S
MT. VERNON       N/A     65  64  97 CALM      29.97S
CENTRALIA*     CLEAR     67  64  90 CALM      29.96S
SALEM*         CLEAR     67  62  85 CALM      29.97R
METROPOLIS*    CLEAR     65  64  97 CALM      29.97S
$$

ILZ067-068-072-073-078-083-087-091-260800-
SOUTHEAST ILLINOIS

CITY           SKY/WX    TMP DP  RH WIND       PRES   REMARKS
LAWRENCEVILLE  CLEAR     69  66  90 CALM      29.97S
FLORA*         CLEAR     68  64  89 CALM      29.97S
FAIRFIELD*     CLEAR     66  63  88 CALM      29.96S
HARRISBURG*    CLEAR     65  64  95 CALM      29.97S
ROBINSON*      CLEAR     63  62  98 CALM      29.98S
CARMI*         CLEAR     65  64  96 CALM      29.97R
$$

ABBREVIATIONS USED IN REMARKS
   TC - TEMPERATURE IN CELSIUS
  WCI - WIND CHILL INDEX
   HX - HEAT INDEX
  VSB - VISIBILITY
$$





USA.gov is the U.S. government's official web portal to all federal, state and local government web resources and services.